Probability
0 0 0 0 0 0 0 0 0 0 0 0 0 0 0 0 0 0 0 0 0 0 0 0 1 1 2 1 1 0 0 0 0 0 0 0 0 0 0 0 0 0 0
0 0 0 0 0 0 0 0 0 0 0 0 0 0 0 0 0 0 0 0 0 0 0 0 0 1 2 2 1 0 0 0 0 0 0 0 0 0 0 0 0 0 0
0 0 0 0 0 0 0 0 0 0 0 0 0 0 0 0 0 0 0 0 0 0 0 0 0 0 1 2 1 0 0 0 0 0 0 0 0 0 0 0 0 0 0
0 0 0 0 0 0 0 0 0 0 0 0 0 0 0 0 0 0 0 0 0 0 0 0 0 0 0 0 0 0 0 0 0 0 0 0 0 0 0 0 0 0 0
0 0 0 0 0 0 0 0 0 0 0 0 0 0 0 0 0 0 0 0 0 0 0 0 0 0 0 0 0 0 0 0 0 0 0 0 0 0 0 0 0 0 0
0 0 1 1 1 2 1 1 0 0 0 0 0 0 0 0 0 0 0 0 0 0 0 0 0 0 0 0 0 0 0 0 0 0 0 0 0 0 0 0 0 0 0
1 1 2 2 3 3 2 1 0 0 0 0 0 0 0 0 0 0 0 0 0 0 0 0 0 0 0 0 0 0 0 0 0 0 0 0 0 0 0 0 0 0 0
3 2 3 3 3 2 1 1 0 0 0 0 0 0 0 0 0 0 0 0 0 0 0 0 0 0 0 0 0 0 0 0 0 0 0 0 0 0 0 0 0 0 0
3 3 3 3 3 2 0 0 0 0 0 0 0 0 0 0 0 0 0 0 0 0 0 0 0 0 0 0 0 0 0 0 0 0 0 0 0 0 0 0 0 0 0
3 3 3 3 2 2 1 1 1 1 1 0 0 0 0 0 0 0 0 0 0 0 0 0 0 0 0 0 0 0 0 0 0 0 0 0 0 0 0 0 0 0 0
2 3 3 2 2 2 2 2 2 2 1 0 0 0 0 0 0 0 0 0 0 0 0 0 0 0 0 0 0 0 0 0 0 0 0 0 0 0 0 0 0 1 1
1 1 1 1 1 2 2 2 2 2 1 0 0 0 0 0 0 0 0 0 0 0 0 0 0 0 0 0 0 0 0 0 0 0 0 0 0 0 0 0 0 0 0
0 0 0 0 1 1 1 1 1 1 0 0 0 0 0 0 0 0 0 0 0 0 0 0 0 0 0 0 0 0 0 0 0 0 0 0 0 0 0 0 0 0 0
0 0 0 0 0 0 0 0 0 0 0 0 0 0 0 0 0 0 0 0 0 0 0 0 0 0 0 0 0 0 0 0 0 0 0 0 0 0 0 0 0 0 0
0 0 0 0 0 0 0 0 0 0 0 0 0 0 0 0 0 0 0 0 0 0 0 0 0 0 0 0 0 0 0 0 0 0 0 0 0 0 0 0 0 0 0
0 0 0 0 0 0 0 0 0 0 0 0 0 0 0 0 0 0 0 0 0 0 0 0 0 0 0 0 0 0 0 0 0 0 0 0 0 0 0 0 0 0 0
0 0 0 0 0 0 0 0 0 0 0 0 0 0 0 0 0 0 0 0 0 0 0 0 0 0 0 0 0 0 0 0 0 0 0 0 0 0 0 0 0 0 0
0 0 0 0 0 0 0 0 0 0 0 0 0 0 0 0 0 0 0 0 0 0 0 0 0 0 0 0 0 0 0 0 0 0 0 0 0 0 0 0 0 0 0
0 0 0 0 0 0 0 0 0 0 0 0 0 0 0 0 0 0 0 0 0 0 0 0 0 0 0 0 0 0 0 0 0 0 0 0 0 0 0 0 0 0 0
0 0 0 0 0 0 0 0 0 0 0 0 0 0 0 0 0 0 0 0 0 0 0 0 0 0 0 0 0 0 0 0 0 0 0 0 0 0 0 0 0 0 0
0 0 0 0 0 0 0 0 0 0 0 0 0 0 0 0 0 0 0 0 0 0 0 0 0 0 0 0 0 0 0 0 0 0 0 0 0 0 0 0 0 0 0
0 0 0 0 0 0 0 0 0 0 0 0 0 0 0 0 0 0 0 0 0 0 0 0 0 0 0 0 0 0 0 0 0 0 0 0 0 0 0 0 0 0 0
0 0 0 0 0 0 0 0 0 0 0 0 0 0 0 0 0 0 0 0 0 0 0 0 0 0 0 0 0 0 0 0 0 0 0 0 0 0 0 0 0 0 0
0 0 0 0 0 0 0 0 0 0 0 0 0 0 0 0 0 0 0 0 0 0 0 0 0 0 0 0 0 0 0 0 0 0 0 0 0 0 0 0 0 0 0
0 0 0 0 0 0 0 0 0 0 0 0 0 0 0 0 0 0 0 0 0 0 0 0 0 0 0 0 0 0 0 0 0 0 0 0 0 0 0 0 0 0 0
0 0 0 0 0 0 0 0 0 0 0 0 0 0 0 0 0 0 0 0 0 0 0 0 0 0 0 0 0 0 0 0 0 0 0 0 0 0 0 0 0 0 0
Wind_Speed
2 2 2 2 2 2 3 3 3 3 2 2 2 3 3 3 3 3 3 9 10 9 9 10 10 10 9 9 8 7 6 5 4 3 3 2 1 0 1 2 2 4 4
3 2 2 2 2 1 2 2 3 3 2 1 2 3 4 4 4 4 3 6 11 11 11 12 13 12 12 12 11 10 9 8 7 7 6 4 3 3 2 1 1 2 3
3 2 1 1 2 2 2 2 3 1 1 2 3 4 4 4 4 4 4 4 5 11 13 14 14 14 14 13 13 12 11 11 10 10 9 8 6 6 5 3 2 2 2
3 2 1 1 2 1 1 1 2 2 2 3 3 3 3 3 4 5 4 4 3 4 9 14 14 14 14 14 14 14 13 12 12 12 11 11 10 9 8 7 6 5 4
3 2 2 2 2 1 1 1 2 2 2 3 3 3 3 3 4 5 5 5 5 4 4 7 12 12 12 14 14 15 14 13 13 13 13 13 12 12 11 10 9 8 7
2 2 2 2 2 1 2 2 3 3 2 3 3 4 4 5 5 6 6 5 4 4 3 3 3 6 10 12 13 13 14 13 12 12 13 14 14 14 14 13 12 11 10
2 2 1 1 1 2 2 3 2 3 3 2 2 4 5 7 8 7 5 4 3 2 1 1 1 1 2 6 8 10 11 12 12 11 12 13 14 15 16 16 15 14 13
1 1 0 1 1 1 2 3 2 2 2 2 2 2 4 4 4 4 2 1 1 1 0 0 0 0 0 0 1 3 6 9 11 11 12 12 14 15 16 17 17 17 16
1 1 0 0 1 1 2 2 2 2 3 2 2 3 3 3 3 3 1 0 1 1 1 1 1 1 2 2 3 5 7 8 10 11 12 12 13 14 16 17 18 18 17
2 2 2 1 1 1 2 2 2 2 2 3 3 3 3 3 2 3 3 2 1 1 1 1 2 3 4 4 6 9 9 9 10 11 12 12 12 13 14 15 17 18 18
3 2 2 2 2 1 2 2 3 3 2 2 2 2 3 2 3 3 3 3 2 1 1 2 2 4 5 6 5 8 11 10 10 11 11 12 12 12 11 12 13 15 17
2 3 2 1 1 1 2 2 2 3 3 3 3 2 2 2 2 2 3 2 2 1 1 3 4 4 5 5 7 11 10 11 11 11 11 11 11 11 10 9 9 11 12
2 2 2 2 2 2 2 2 2 3 3 3 3 2 2 2 1 1 2 2 2 1 0 3 4 4 5 5 5 9 9 11 11 11 11 11 10 10 9 7 7 7 8
2 3 2 2 2 2 3 2 2 2 2 2 3 2 1 1 1 1 1 1 2 2 1 2 3 5 4 4 7 9 6 11 11 11 11 10 9 8 6 5 4 2 2
2 2 2 2 2 2 2 2 2 2 2 2 2 2 1 2 2 2 2 1 1 2 2 2 2 4 3 3 7 5 5 10 12 12 11 10 9 8 7 6 4 1 1
3 2 2 2 2 2 2 2 2 2 2 2 2 3 3 2 2 2 2 2 1 1 1 1 2 2 4 4 7 5 5 10 12 13 13 12 11 10 8 7 6 4 3
3 3 2 2 2 2 2 1 1 2 3 3 3 3 4 3 2 3 2 2 2 1 1 1 2 3 4 4 4 4 4 4 5 12 13 12 12 11 11 10 9 7 6
3 3 2 2 3 3 2 2 2 3 3 4 3 3 3 3 3 3 2 3 2 2 1 0 1 2 3 3 3 3 3 4 4 9 11 12 11 11 11 11 11 10 10
3 3 2 3 3 2 2 2 3 4 5 4 4 4 4 4 4 3 3 3 2 2 2 1 1 1 1 2 2 3 3 3 4 6 9 10 10 11 11 11 11 10 9
3 3 3 3 3 2 2 2 3 5 5 5 6 6 6 5 4 4 3 4 3 3 2 2 1 1 1 2 2 3 3 3 3 3 5 6 7 8 8 9 9 9 9
3 3 3 3 2 2 2 2 3 4 5 5 5 5 5 6 7 5 4 4 4 3 2 2 1 1 2 2 2 2 3 3 2 3 3 3 3 3 3 5 6 7 6
3 3 3 3 3 3 5 5 4 4 5 5 4 3 4 4 6 7 8 7 6 4 2 2 1 1 1 2 2 2 2 3 3 3 3 3 2 2 1 1 4 6 6
3 3 3 3 5 5 6 6 6 5 5 4 3 2 2 3 4 2 3 5 6 7 6 2 2 2 1 2 2 2 2 2 2 3 2 3 3 2 2 1 3 4 4
3 3 3 4 5 5 7 6 7 5 4 3 2 2 2 2 2 2 2 2 2 2 3 3 3 2 2 2 2 1 1 2 3 2 1 1 3 3 3 2 1 1 2
3 3 3 4 4 4 6 6 6 3 3 2 2 1 1 1 2 2 1 1 1 0 2 2 1 0 2 3 2 2 2 3 2 2 2 1 2 3 3 3 2 2 3
4 4 3 3 3 3 6 6 5 2 2 2 2 2 2 2 0 1 1 1 1 1 1 0 1 2 2 1 1 1 1 1 0 2 2 2 2 3 4 3 2 2 3
Wind_Direction
174 191 199 165 202 189 170 203 243 247 224 236 241 246 263 266 261 247 189 197 202 213 231 243 246 244 238 235 237 234 229 226 228 226 232 244 261 344 58 63 62 74 76
168 183 228 172 214 199 194 202 239 250 242 245 267 272 259 253 249 250 225 210 215 219 228 238 245 249 246 242 238 235 231 229 228 227 227 230 230 231 218 185 111 96 95
168 178 233 194 215 209 217 229 277 301 303 289 274 268 262 257 259 259 251 225 212 220 227 236 242 247 250 250 248 243 235 229 228 227 226 227 227 226 222 216 204 181 152
170 170 198 236 246 229 208 225 258 277 269 262 263 271 273 267 258 260 260 251 230 216 221 230 239 245 250 254 255 254 247 235 228 227 226 225 224 224 224 220 215 208 199
171 168 197 231 251 249 232 238 243 249 267 273 274 277 281 280 272 267 260 256 248 233 213 217 227 238 247 254 260 262 258 249 235 229 228 226 224 222 223 223 219 216 212
166 170 191 238 252 248 247 246 246 245 246 261 278 277 270 264 261 256 252 251 249 238 222 213 211 233 240 251 261 268 270 266 253 239 232 229 227 224 222 222 219 218 216
150 160 192 235 247 245 250 256 257 260 257 250 275 287 271 253 247 244 234 231 245 242 208 207 199 204 236 245 259 272 282 283 276 262 247 236 230 227 225 223 221 218 216
103 122 174 256 262 263 273 273 272 267 261 232 223 283 300 303 277 249 223 202 248 11 26 52 127 309 320 52 10 316 306 306 300 290 276 258 243 233 229 226 223 220 217
91 88 73 324 311 287 276 282 284 272 269 266 220 220 254 272 327 326 313 108 37 18 354 23 46 35 45 55 40 27 13 347 323 310 299 285 267 249 238 232 227 222 217
87 59 37 16 342 329 303 292 298 292 278 274 275 244 233 240 267 301 319 324 336 326 314 16 52 53 58 61 51 34 23 2 339 323 310 301 290 273 257 244 235 227 219
110 84 42 17 357 346 333 330 324 311 289 270 266 273 275 270 240 239 272 291 304 301 347 47 59 60 58 61 51 28 20 5 347 331 319 311 304 300 284 268 251 235 224
122 111 73 26 6 1 349 337 325 315 302 290 282 268 253 254 254 245 250 262 273 295 22 45 60 61 57 58 42 26 20 7 352 338 328 321 320 319 310 294 280 250 232
111 97 76 32 17 11 354 334 319 308 308 304 296 291 283 275 283 268 261 266 266 275 63 60 53 57 54 53 28 20 23 11 360 349 341 338 336 328 318 304 295 266 246
87 77 66 43 33 18 356 342 319 311 327 323 318 318 315 347 348 331 292 271 270 268 240 109 63 49 49 48 26 30 21 17 10 4 359 356 352 348 343 334 318 297 230
88 72 66 55 49 30 1 349 350 354 357 9 354 356 12 23 23 11 359 339 235 250 251 93 82 45 42 48 30 27 21 19 19 18 16 13 10 8 9 7 5 27 169
83 76 70 62 58 43 17 23 21 5 46 48 26 42 46 39 35 21 9 7 9 242 242 73 77 51 44 38 31 25 22 26 24 25 28 28 26 24 20 21 35 48 60
89 75 69 64 57 43 28 51 57 45 74 67 53 63 58 49 47 28 20 27 31 26 244 85 77 50 49 33 13 16 24 24 17 25 27 30 32 33 33 38 40 44 49
89 79 70 75 70 52 31 50 72 64 74 75 67 69 62 65 61 43 39 42 36 28 32 85 62 45 43 28 10 15 25 26 17 21 25 29 32 34 36 38 39 44 52
101 94 84 84 79 67 53 57 82 84 76 70 63 63 52 58 57 45 47 41 27 29 42 75 68 52 38 16 9 11 29 23 12 16 22 25 30 37 39 41 41 41 44
112 105 94 90 89 85 78 74 90 95 88 77 67 61 54 56 53 43 48 30 24 35 50 68 76 64 41 4 32 11 2 6 359 8 11 11 19 29 34 39 40 38 35
105 105 108 109 104 98 86 85 94 107 105 93 80 73 65 66 64 60 59 37 34 44 53 60 68 59 42 27 18 357 351 337 1 19 358 346 356 8 17 26 32 24 18
116 122 126 123 110 100 101 93 100 97 100 101 96 87 84 64 65 64 66 60 56 59 55 37 47 66 51 28 16 5 2 9 338 350 6 326 343 357 343 39 14 7 358
137 134 131 120 111 114 118 107 101 100 98 99 101 96 96 88 63 47 59 65 58 56 54 61 68 59 57 32 30 7 9 356 288 295 3 321 333 338 310 343 5 356 345
144 140 129 119 120 127 125 120 114 105 109 114 113 112 109 108 83 64 58 54 57 67 57 58 74 60 63 42 29 344 307 319 298 298 73 320 321 324 319 316 264 343 338
140 135 127 125 129 139 144 141 132 127 136 154 168 154 114 111 99 71 49 346 327 212 138 123 102 344 343 349 4 27 17 25 343 332 19 16 323 326 321 316 262 249 282
148 143 139 138 143 161 175 175 166 158 168 188 197 193 171 153 148 19 15 350 6 18 50 334 296 287 273 286 1 100 121 115 322 309 344 25 352 358 332 314 323 316 305